Location: Calvera
(42.3882°N, 0.6137°E)
Time: 14:51:43
(UTC+00:00)

Cosmos 1302 Rocket - Pass Details

Date: 28 October 2020
Orbit: 756 x 777 km, 74.0° (Epoch: 24 November)

Event Time Altitude Azimuth Distance (km) Brightness Sun altitude
Exits shadow 04:43:08 37° 255° (WSW) 1,184 4.5 -19.6°
Drops below altitude 10° 04:47:48 10° 192° (SSW) 2,310 6.4 -18.7°
Sets 04:50:18 0° 184° (S) 3,230 7.2 -18.3°
